******** Week 147 almanac for PRN-1 ******** ID: 1 Health: 0 Eccentricity: 0.01134490967 Time of Applicability(s): 589824 Orbital Inclination(rad): 0.9866037122 Rate of Right Ascen(r/s): -7.726036106e-09 SQRT(A) (m 1/2): 5153.626953 Right Ascen at Week(rad): -1.663589057 Argument of Perigee(rad): 0.8820288417 Mean Anom(rad): -1.518744719 Af0(s): 0.0003466901855 Af1(s/s): -1.091394e-11 week: 147 ******** Week 147 almanac for PRN-2 ******** ID: 2 Health: 0 Eccentricity: 0.02067136765 Time of Applicability(s): 589824 Orbital Inclination(rad): 0.964960202 Rate of Right Ascen(r/s): -7.851755628e-09 SQRT(A) (m 1/2): 5153.640625 Right Ascen at Week(rad): -1.752682407 Argument of Perigee(rad): -1.446744994 Mean Anom(rad): -1.367877559 Af0(s): -0.0005140058838 Af1(s/s): 0 week: 147 ******** Week 147 almanac for PRN-3 ******** ID: 3 Health: 0 Eccentricity: 0.003870487213 Time of Applicability(s): 589824 Orbital Inclination(rad): 0.9725102637 Rate of Right Ascen(r/s): -8.068907531e-09 SQRT(A) (m 1/2): 5153.631348 Right Ascen at Week(rad): -0.6280310594 Argument of Perigee(rad): 0.964556334 Mean Anom(rad): -2.678243571 Af0(s): -8.591887207e-05 Af1(s/s): -1.818989e-11 week: 147 ******** Week 147 almanac for PRN-4 ******** ID: 4 Health: 0 Eccentricity: 0.00169467926 Time of Applicability(s): 589824 Orbital Inclination(rad): 0.9614368399 Rate of Right Ascen(r/s): -7.806039438e-09 SQRT(A) (m 1/2): 5153.608887 Right Ascen at Week(rad): 0.452919812 Argument of Perigee(rad): -3.07525248 Mean Anom(rad): 0.2758034541 Af0(s): -0.0001514885376 Af1(s/s): 3.637979e-12 week: 147 ******** Week 147 almanac for PRN-5 ******** ID: 5 Health: 0 Eccentricity: 0.005871295929 Time of Applicability(s): 589824 Orbital Inclination(rad): 0.9594774191 Rate of Right Ascen(r/s): -8.217485148e-09 SQRT(A) (m 1/2): 5153.603516 Right Ascen at Week(rad): -0.6683032982 Argument of Perigee(rad): 1.010642794 Mean Anom(rad): 1.132533597 Af0(s): -5.577189941e-05 Af1(s/s): 0 week: 147 ******** Week 147 almanac for PRN-6 ******** ID: 6 Health: 0 Eccentricity: 0.002671718597 Time of Applicability(s): 589824 Orbital Inclination(rad): 0.9859865246 Rate of Right Ascen(r/s): -7.691748963e-09 SQRT(A) (m 1/2): 5153.621094 Right Ascen at Week(rad): -1.671861918 Argument of Perigee(rad): -0.970336101 Mean Anom(rad): -1.178383369 Af0(s): 0.0001522422119 Af1(s/s): 1.091394e-11 week: 147 ******** Week 147 almanac for PRN-7 ******** ID: 7 Health: 0 Eccentricity: 0.0155043602 Time of Applicability(s): 589824 Orbital Inclination(rad): 0.9506630217 Rate of Right Ascen(r/s): -7.954617056e-09 SQRT(A) (m 1/2): 5153.643555 Right Ascen at Week(rad): 1.471914862 Argument of Perigee(rad): -2.293138743 Mean Anom(rad): -2.185401684 Af0(s): 0.0002434368042 Af1(s/s): 3.637979e-12 week: 147 ******** Week 147 almanac for PRN-8 ******** ID: 8 Health: 0 Eccentricity: 0.007251262665 Time of Applicability(s): 589824 Orbital Inclination(rad): 0.965121989 Rate of Right Ascen(r/s): -7.863184676e-09 SQRT(A) (m 1/2): 5153.668945 Right Ascen at Week(rad): -2.743109686 Argument of Perigee(rad): 0.09594682815 Mean Anom(rad): 0.7572704388 Af0(s): -4.371311035e-05 Af1(s/s): 0 week: 147 ******** Week 147 almanac for PRN-9 ******** ID: 9 Health: 0 Eccentricity: 0.002283096313 Time of Applicability(s): 589824 Orbital Inclination(rad): 0.9544440446 Rate of Right Ascen(r/s): -7.897471818e-09 SQRT(A) (m 1/2): 5153.578125 Right Ascen at Week(rad): 0.4000585195 Argument of Perigee(rad): 1.871804479 Mean Anom(rad): 1.104672147 Af0(s): -0.00028112052 Af1(s/s): 0 week: 147 ******** Week 147 almanac for PRN-10 ******** ID: 10 Health: 0 Eccentricity: 0.007493972778 Time of Applicability(s): 589824 Orbital Inclination(rad): 0.9723364924 Rate of Right Ascen(r/s): -8.057478483e-09 SQRT(A) (m 1/2): 5153.625 Right Ascen at Week(rad): -0.6308241328 Argument of Perigee(rad): -2.520365639 Mean Anom(rad): 2.738729827 Af0(s): -0.0002472051758 Af1(s/s): -1.091394e-11 week: 147 ******** Week 147 almanac for PRN-11 ******** ID: 11 Health: 255 Eccentricity: 0.0002818107605 Time of Applicability(s): 589824 Orbital Inclination(rad): 0.9617064849 Rate of Right Ascen(r/s): -7.966046103e-09 SQRT(A) (m 1/2): 5153.71875 Right Ascen at Week(rad): -1.619578115 Argument of Perigee(rad): 2.844595099 Mean Anom(rad): 0.6326292567 Af0(s): -7.838212891e-05 Af1(s/s): 1.455192e-11 week: 147 ******** Week 147 almanac for PRN-12 ******** ID: 12 Health: 0 Eccentricity: 0.008658885956 Time of Applicability(s): 589824 Orbital Inclination(rad): 0.9704190164 Rate of Right Ascen(r/s): -8.034620388e-09 SQRT(A) (m 1/2): 5153.551758 Right Ascen at Week(rad): 2.584819048 Argument of Perigee(rad): 1.24344273 Mean Anom(rad): -2.842054818 Af0(s): -0.0001318930054 Af1(s/s): -7.275958e-12 week: 147 ******** Week 147 almanac for PRN-13 ******** ID: 13 Health: 0 Eccentricity: 0.005798816681 Time of Applicability(s): 589824 Orbital Inclination(rad): 0.968849083 Rate of Right Ascen(r/s): -7.726036106e-09 SQRT(A) (m 1/2): 5153.630371 Right Ascen at Week(rad): 0.5526974726 Argument of Perigee(rad): 0.9637215579 Mean Anom(rad): 0.1708029185 Af0(s): 0.0002027383911 Af1(s/s): 7.275958e-12 week: 147 ******** Week 147 almanac for PRN-14 ******** ID: 14 Health: 0 Eccentricity: 0.001401424408 Time of Applicability(s): 589824 Orbital Inclination(rad): 0.9538088807 Rate of Right Ascen(r/s): -8.206056101e-09 SQRT(A) (m 1/2): 5153.587891 Right Ascen at Week(rad): 2.553680286 Argument of Perigee(rad): 3.024287316 Mean Anom(rad): -2.783627976 Af0(s): -6.330864258e-05 Af1(s/s): -3.637979e-12 week: 147 ******** Week 147 almanac for PRN-15 ******** ID: 15 Health: 0 Eccentricity: 0.01392507553 Time of Applicability(s): 589824 Orbital Inclination(rad): 0.9303138078 Rate of Right Ascen(r/s): -8.183198006e-09 SQRT(A) (m 1/2): 5153.678711 Right Ascen at Week(rad): 0.2943044758 Argument of Perigee(rad): 1.074326217 Mean Anom(rad): -0.2455324255 Af0(s): -6.783068848e-05 Af1(s/s): 3.637979e-12 week: 147 ******** Week 147 almanac for PRN-16 ******** ID: 16 Health: 0 Eccentricity: 0.01273155212 Time of Applicability(s): 589824 Orbital Inclination(rad): 0.9703830638 Rate of Right Ascen(r/s): -8.034620388e-09 SQRT(A) (m 1/2): 5153.543457 Right Ascen at Week(rad): 2.603439163 Argument of Perigee(rad): 0.7047784102 Mean Anom(rad): 1.586616253 Af0(s): -0.0003677930664 Af1(s/s): -3.637979e-12 week: 147 ******** Week 147 almanac for PRN-17 ******** ID: 17 Health: 0 Eccentricity: 0.01364850998 Time of Applicability(s): 589824 Orbital Inclination(rad): 0.9802161203 Rate of Right Ascen(r/s): -7.680319916e-09 SQRT(A) (m 1/2): 5153.710449 Right Ascen at Week(rad): -2.661399369 Argument of Perigee(rad): -1.501146634 Mean Anom(rad): 0.6633481957 Af0(s): 0.0004514509155 Af1(s/s): 3.637979e-12 week: 147 ******** Week 147 almanac for PRN-18 ******** ID: 18 Health: 0 Eccentricity: 0.00209569931 Time of Applicability(s): 589824 Orbital Inclination(rad): 0.970395048 Rate of Right Ascen(r/s): -7.863184676e-09 SQRT(A) (m 1/2): 5153.57666 Right Ascen at Week(rad): -1.655625165 Argument of Perigee(rad): 3.105524257 Mean Anom(rad): -1.319906579 Af0(s): 0.0001944479736 Af1(s/s): -7.275958e-12 week: 147 ******** Week 147 almanac for PRN-19 ******** ID: 19 Health: 0 Eccentricity: 0.008948802948 Time of Applicability(s): 589824 Orbital Inclination(rad): 0.9789457925 Rate of Right Ascen(r/s): -7.691748963e-09 SQRT(A) (m 1/2): 5153.640137 Right Ascen at Week(rad): -2.616526311 Argument of Perigee(rad): 2.004395322 Mean Anom(rad): 3.071054631 Af0(s): 9.119459228e-05 Af1(s/s): 3.637979e-12 week: 147 ******** Week 147 almanac for PRN-20 ******** ID: 20 Health: 0 Eccentricity: 0.005207538605 Time of Applicability(s): 589824 Orbital Inclination(rad): 0.9416149319 Rate of Right Ascen(r/s): -8.388920861e-09 SQRT(A) (m 1/2): 5153.679688 Right Ascen at Week(rad): -0.7821650445 Argument of Perigee(rad): 3.124114037 Mean Anom(rad): -0.4893488597 Af0(s): 0.0004084914795 Af1(s/s): 0 week: 147 ******** Week 147 almanac for PRN-21 ******** ID: 21 Health: 0 Eccentricity: 0.02457427978 Time of Applicability(s): 589824 Orbital Inclination(rad): 0.959207774 Rate of Right Ascen(r/s): -7.874613723e-09 SQRT(A) (m 1/2): 5153.538574 Right Ascen at Week(rad): -1.754251966 Argument of Perigee(rad): -1.011287321 Mean Anom(rad): 0.8411296781 Af0(s): 0.0001243562622 Af1(s/s): 0 week: 147 ******** Week 147 almanac for PRN-22 ******** ID: 22 Health: 0 Eccentricity: 0.01284694672 Time of Applicability(s): 589824 Orbital Inclination(rad): 0.9615746585 Rate of Right Ascen(r/s): -7.794610391e-09 SQRT(A) (m 1/2): 5153.606934 Right Ascen at Week(rad): 0.5012132424 Argument of Perigee(rad): -1.875133097 Mean Anom(rad): 0.5320141984 Af0(s): 0.0001650546753 Af1(s/s): 7.275958e-12 week: 147 ******** Week 147 almanac for PRN-23 ******** ID: 23 Health: 0 Eccentricity: 0.001976013184 Time of Applicability(s): 589824 Orbital Inclination(rad): 0.9673690312 Rate of Right Ascen(r/s): -8.114623721e-09 SQRT(A) (m 1/2): 5153.645508 Right Ascen at Week(rad): -0.6556311039 Argument of Perigee(rad): 2.95162022 Mean Anom(rad): -2.219860825 Af0(s): 3.014697266e-06 Af1(s/s): -3.637979e-12 week: 147 ******** Week 147 almanac for PRN-24 ******** ID: 24 Health: 0 Eccentricity: 0.01232242584 Time of Applicability(s): 589824 Orbital Inclination(rad): 0.9341787203 Rate of Right Ascen(r/s): -8.103194673e-09 SQRT(A) (m 1/2): 5153.641602 Right Ascen at Week(rad): 1.389298986 Argument of Perigee(rad): 0.8062701894 Mean Anom(rad): -1.220168242 Af0(s): 0.0002178118774 Af1(s/s): 0 week: 147 ******** Week 147 almanac for PRN-25 ******** ID: 25 Health: 0 Eccentricity: 0.01046943665 Time of Applicability(s): 589824 Orbital Inclination(rad): 0.9577936355 Rate of Right Ascen(r/s): -8.171768958e-09 SQRT(A) (m 1/2): 5153.656738 Right Ascen at Week(rad): 2.508218129 Argument of Perigee(rad): 0.9781647959 Mean Anom(rad): -3.089644036 Af0(s): 0.0002223339233 Af1(s/s): 7.275958e-12 week: 147 ******** Week 147 almanac for PRN-26 ******** ID: 26 Health: 0 Eccentricity: 0.006851673126 Time of Applicability(s): 589824 Orbital Inclination(rad): 0.9386068914 Rate of Right Ascen(r/s): -8.377491813e-09 SQRT(A) (m 1/2): 5153.632324 Right Ascen at Week(rad): 2.461403253 Argument of Perigee(rad): 0.3640639 Mean Anom(rad): 2.542094162 Af0(s): 0.0001431981201 Af1(s/s): 3.637979e-12 week: 147 ******** Week 147 almanac for PRN-27 ******** ID: 27 Health: 0 Eccentricity: 0.01016807556 Time of Applicability(s): 589824 Orbital Inclination(rad): 0.9738165442 Rate of Right Ascen(r/s): -7.783181343e-09 SQRT(A) (m 1/2): 5153.60498 Right Ascen at Week(rad): -2.72377314 Argument of Perigee(rad): 0.634565458 Mean Anom(rad): 0.7053480354 Af0(s): 8.365784912e-05 Af1(s/s): 1.818989e-11 week: 147 ******** Week 147 almanac for PRN-29 ******** ID: 29 Health: 0 Eccentricity: 0.001802921295 Time of Applicability(s): 589824 Orbital Inclination(rad): 0.9822174859 Rate of Right Ascen(r/s): -7.657461821e-09 SQRT(A) (m 1/2): 5153.713867 Right Ascen at Week(rad): -2.648412963 Argument of Perigee(rad): 2.267120241 Mean Anom(rad): 0.8233926508 Af0(s): -0.0003768371582 Af1(s/s): -3.637979e-12 week: 147 ******** Week 147 almanac for PRN-30 ******** ID: 30 Health: 0 Eccentricity: 0.005482673645 Time of Applicability(s): 589824 Orbital Inclination(rad): 0.9358265513 Rate of Right Ascen(r/s): -8.103194673e-09 SQRT(A) (m 1/2): 5153.527344 Right Ascen at Week(rad): 1.485199001 Argument of Perigee(rad): -2.748661753 Mean Anom(rad): -2.154359171 Af0(s): -0.0004039694336 Af1(s/s): -3.637979e-12 week: 147 ******** Week 147 almanac for PRN-31 ******** ID: 31 Health: 0 Eccentricity: 0.01045608521 Time of Applicability(s): 589824 Orbital Inclination(rad): 0.954887461 Rate of Right Ascen(r/s): -7.897471818e-09 SQRT(A) (m 1/2): 5153.633301 Right Ascen at Week(rad): 1.489973966 Argument of Perigee(rad): 0.3735613982 Mean Anom(rad): -2.638477291 Af0(s): -0.0001288783081 Af1(s/s): -3.637979e-12 week: 147 ******** Week 147 almanac for PRN-32 ******** ID: 32 Health: 0 Eccentricity: 0.005533695221 Time of Applicability(s): 589824 Orbital Inclination(rad): 0.9583029651 Rate of Right Ascen(r/s): -7.863184676e-09 SQRT(A) (m 1/2): 5153.723145 Right Ascen at Week(rad): 0.4112150839 Argument of Perigee(rad): -2.361776144 Mean Anom(rad): 1.362378672 Af0(s): -4.974250488e-05 Af1(s/s): -7.275958e-12 week: 147